DMSP 5D-2 F13 DEB, 40565

Orbit data source: Space-Track

DMSP 5D-2 F13 DEB, 40565 is space debris in SSO originally from a launch on Fri, 24 Mar 1995 UTC launched from the Air Force Western Test Range (AFWTR). Debris objects in space refer to the collection of defunct objects orbiting the Earth. Examples of debris include non-operational satellites, rocket bodies, and fragments generated from explosions, collisions, or faulty payload assembly.

Loading next visibility...
Identifier
40565, 1995-015DY
Orbit
SSO
Country
Flag of USUS
Related business
Manufacturer
Unknown
Mission
Spacecraft
Bus & Motor
Unknown
Mass
Unknown
Launch date (UTC)
1995-03-24 (31 years ago)
Launch vehicle
Unknown
Launch site
Air Force Western Test Range (AFWTR)
Object type
Payload
Rocket body
Debris
Shape & HBR
Unknown shape, 0.1 m
Radar Cross Section
Medium (>0.1 m² and <1 m²)

Expand to show TLE details & history
Last TLE update: 2 days ago

TLE from 2 days ago
0 DMSP 5D-2 F13 DEB
1 40565U 95015DY  26148.57185271  .00002095  00000-0  16255-2 0  9994
2 40565  98.7969 261.2459 0164502 312.3866  46.3466 13.87525971561375
Epoch: 2026-05-28T13:43Z
TLE epoch observation values (Epoch: 2026-05-28T13:43:28.074Z)
Latitude
-0.00005°
Longitude
169.26426°
Altitude
858.15 km
Speed
7.465 km/s
True Right ascension
17h 24m 59s
True Declination
0° 00' 00"
Sunlit
Object was in full shadow at epoch
Visualization orbit readout
Latitude
Unknown
Longitude
Unknown
Altitude
Unknown
Speed
Unknown
Apparent Right ascension
Unknown
Apparent Declination
Unknown
Sunlit
N/A
Visualization observer readout
Local Sidereal Time
22:55:19
Azimuth
Unknown
Elevation
Unknown
Doppler factor
Unknown
Orbital elements
Apogee altitude
1,054.814 km
Perigee altitude
814.224 km
Semi-major axis
7,312.656 km
Eccentricity
0.01645
Inclination
98.7969°
RAAN
261.2459°
Arg. of periapsis
312.3866°
True anomaly
47.72998°
Mean anomaly
46.3466°
Eccentric anomaly
47.03633°
Mean motion
3.47081 °/min
Orbital period
103.72 mins
BSTAR
0.0016255
Loading maneuver chart data...
Computing Atmospheric mass density...

Documentation

Showing up to 5 results
|